Wind_Speed
19 19 18 17 16 15 16 16 17 19 20 21 20 20 21 20 19 18 19 19 17 17 18 18 18 19 21 21 22 23 23 22 22 22 22 22 22 21 21 21 21 20 19 19 19 19 18 18 19 19 19 19 19 19 18 18 17 17 17 17 18 18 18 19 19 19 17 17 16 16 16 15 14 13
21 21 20 20 19 18 18 18 18 18 19 20 21 22 22 21 20 19 21 22 20 19 21 20 19 19 20 21 22 23 23 23 23 24 23 24 24 23 22 22 22 22 21 20 19 18 18 17 18 18 19 19 19 19 19 19 18 18 18 18 17 17 17 18 18 18 17 16 16 16 15 15 14 13
21 21 21 21 21 21 21 20 20 20 19 19 20 22 23 23 23 21 23 24 21 20 22 22 20 20 20 21 22 22 23 23 23 24 24 24 25 25 24 23 23 23 22 22 20 19 18 18 17 17 18 19 19 19 20 20 20 19 19 18 18 18 18 17 17 17 17 16 16 16 15 15 14 14
21 21 21 21 22 22 22 21 21 20 20 20 20 21 22 23 24 25 26 26 22 20 22 23 22 22 22 21 21 22 23 23 23 24 25 25 25 26 25 24 24 24 23 23 22 21 20 19 18 18 18 18 19 19 20 20 20 20 20 20 19 19 18 18 17 16 16 16 16 16 15 15 15 14
21 22 22 22 21 22 21 21 20 21 21 22 22 21 22 22 23 24 25 25 22 19 20 23 23 23 24 23 22 22 23 22 23 25 25 26 27 27 27 26 25 25 24 23 23 23 22 21 20 18 18 18 19 18 19 19 20 20 21 21 20 20 19 19 18 17 16 16 16 16 16 16 15 15
21 22 23 22 22 22 22 22 23 23 23 23 23 21 21 20 20 22 23 25 24 20 19 21 22 22 24 24 22 23 23 22 23 24 25 26 27 27 28 28 27 26 25 24 25 24 23 23 22 20 19 19 19 19 19 19 19 20 21 21 21 21 21 20 19 18 17 17 17 17 17 17 16 16
21 23 23 23 22 23 23 24 24 24 24 23 23 22 21 21 21 21 22 23 24 21 19 20 21 22 23 23 23 23 23 23 23 24 24 25 26 27 28 28 28 27 26 25 25 25 24 24 24 22 20 20 19 19 19 19 20 20 21 21 22 22 22 21 20 20 19 19 19 19 19 18 18 18
22 23 23 23 22 23 24 24 23 23 23 22 22 21 21 22 23 23 22 23 25 25 23 21 21 22 24 25 24 23 23 24 24 24 24 25 25 26 27 28 28 27 28 27 27 26 25 26 25 24 22 21 21 21 20 20 20 21 21 22 22 22 23 22 22 21 20 20 20 20 19 19 19 19
22 23 23 23 22 23 25 25 24 24 24 24 23 23 23 23 23 22 23 25 26 26 25 23 22 23 25 25 26 25 25 25 25 25 25 25 25 25 26 27 28 28 28 29 29 28 27 26 26 26 24 23 22 22 22 21 21 21 22 22 22 22 22 23 22 22 21 21 21 20 20 20 20 20
21 22 23 23 23 23 23 24 24 24 25 25 26 26 26 25 23 23 24 25 26 25 24 24 24 24 25 26 26 27 27 27 26 25 25 25 25 25 26 27 27 28 29 29 30 29 28 27 28 28 27 26 24 24 24 23 23 22 23 22 22 22 22 22 22 22 22 21 21 21 20 20 20 20
22 22 22 22 23 22 22 22 22 22 23 24 25 25 26 26 25 26 26 26 26 27 27 27 26 25 25 26 27 27 28 29 28 26 26 26 26 26 26 27 27 27 28 28 29 29 29 29 29 30 30 28 26 25 26 25 25 24 24 24 23 22 22 21 21 21 21 21 21 21 20 20 20 20
23 23 23 23 22 22 22 21 21 22 22 23 24 25 25 27 27 27 28 28 28 29 30 30 28 26 26 26 27 28 30 31 30 28 28 27 26 26 27 27 26 25 25 26 27 28 30 30 30 32 33 31 29 28 27 27 27 26 26 25 25 24 23 22 21 21 21 21 21 21 20 20 20 20
23 23 23 23 23 23 22 22 22 23 24 25 26 27 27 28 29 30 30 30 31 31 31 31 30 28 27 27 28 29 29 30 29 29 29 29 27 27 27 27 26 26 25 25 26 27 29 30 31 32 33 33 32 30 29 29 29 28 27 26 26 25 24 24 23 22 22 21 21 21 21 20 20 20
23 23 24 24 24 24 24 24 24 25 25 26 27 28 29 30 32 33 33 33 33 33 33 33 33 32 30 28 29 30 29 29 28 28 29 29 28 28 28 27 27 27 26 26 26 26 26 28 30 32 32 32 32 32 31 30 30 30 28 27 26 26 26 25 25 24 23 23 22 22 21 20 20 20
24 24 25 25 25 25 25 25 26 26 27 27 28 28 28 30 32 34 35 35 35 36 36 36 35 35 34 31 30 32 31 29 29 29 30 30 30 30 29 28 28 28 27 27 28 27 26 26 28 29 30 30 31 32 32 32 32 32 30 29 28 27 26 26 26 26 26 25 24 23 22 21 21 21
24 25 25 25 26 26 26 26 27 28 28 28 29 29 29 29 30 32 34 34 35 37 38 39 38 38 37 35 33 33 33 31 30 31 32 32 31 30 29 28 29 30 29 29 29 28 26 27 28 28 28 28 29 31 32 33 33 33 33 31 30 29 28 27 27 27 27 27 26 25 24 24 23 23
25 25 26 26 26 26 26 26 27 28 29 30 31 31 32 31 30 31 32 33 33 35 36 38 38 39 39 39 38 37 36 34 33 34 34 34 34 32 30 30 31 31 31 30 30 29 28 28 30 29 27 26 27 29 31 33 34 34 34 34 33 31 30 29 29 28 28 28 28 27 26 26 26 26
26 27 27 28 27 27 26 27 27 28 29 31 32 33 34 33 32 32 32 32 32 33 35 36 36 35 36 37 37 38 39 39 39 38 37 37 37 35 33 33 32 32 32 32 32 32 30 29 31 31 27 25 26 27 28 31 33 33 34 35 34 33 32 32 31 31 30 30 30 29 29 28 28 27
28 29 29 29 29 29 28 28 28 29 30 31 33 33 33 34 34 34 33 33 33 34 35 36 35 34 34 34 35 37 38 40 42 42 41 40 39 38 37 36 34 33 33 33 35 36 32 29 32 33 29 27 27 27 27 28 29 31 33 35 35 35 35 34 34 34 33 32 31 30 30 30 29 29
31 31 31 31 31 31 29 28 28 29 30 31 31 31 31 33 34 35 35 35 35 35 36 36 36 35 35 35 36 36 36 37 39 40 41 40 39 40 39 37 36 36 35 35 36 37 34 31 32 33 31 30 29 28 28 29 29 30 32 34 36 36 36 36 36 36 36 35 34 32 31 31 31 30
32 32 32 32 32 31 28 27 27 29 30 30 30 29 29 31 32 33 34 35 36 37 37 38 39 39 38 37 37 36 36 36 36 38 39 38 38 41 42 40 38 37 36 35 36 37 36 33 32 33 33 32 32 31 29 28 29 30 31 33 35 36 37 37 37 36 37 37 36 34 33 32 32 31
31 31 30 29 29 29 27 26 27 29 30 31 31 30 30 31 32 32 32 33 35 37 39 40 41 42 41 40 39 38 38 38 38 39 38 37 37 40 41 40 39 37 35 34 37 39 37 33 32 32 33 33 33 32 30 29 30 30 30 31 33 35 37 38 38 37 37 38 38 36 35 34 34 33
28 27 26 25 25 26 27 28 29 29 30 31 32 32 32 32 32 31 31 32 33 35 37 39 41 42 43 42 42 41 40 40 40 40 39 38 39 41 41 40 40 40 38 34 35 39 38 35 33 33 34 36 35 32 31 31 30 31 31 31 31 33 35 37 38 37 37 37 38 38 37 36 35 34
26 26 25 24 26 27 28 30 30 30 31 32 33 33 34 34 33 33 33 33 33 33 34 35 37 39 42 43 43 42 41 40 40 40 40 40 40 41 42 41 41 42 40 35 34 37 37 37 37 37 36 37 37 34 33 32 31 30 30 30 30 31 33 35 36 37 38 38 37 37 38 37 36 36
28 28 27 27 28 30 31 31 32 32 33 34 35 36 35 35 34 35 35 34 34 34 34 33 34 35 37 40 42 43 42 41 40 39 39 39 39 39 39 40 41 42 40 35 34 36 36 36 37 37 36 36 35 34 34 34 32 31 30 30 30 30 31 33 35 36 38 39 38 38 38 38 37 37
29 29 29 29 30 32 33 34 34 35 35 36 37 37 37 37 36 37 37 37 36 35 35 34 34 34 34 36 38 41 42 42 40 39 39 39 39 39 37 37 38 40 38 34 33 34 36 36 36 36 37 36 33 32 32 33 32 31 31 31 30 31 31 32 34 35 36 38 39 39 38 39 39 39
31 31 32 32 32 34 35 36 37 38 38 38 38 39 39 39 39 40 40 39 38 37 36 35 35 34 33 33 34 36 39 40 40 40 39 38 39 38 37 35 36 37 35 32 31 32 33 34 34 35 35 34 33 32 32 32 32 31 31 31 30 31 32 32 32 34 35 36 38 39 40 40 40 41
35 37 37 37 36 36 37 38 39 40 41 41 41 41 42 42 42 42 41 40 39 38 37 37 36 34 32 32 32 33 34 37 39 40 41 40 39 38 36 35 35 35 34 31 30 31 32 33 33 32 32 32 32 31 30 31 33 33 32 31 31 32 32 32 31 32 33 35 36 38 40 41 41 42
40 41 41 41 40 40 39 39 39 39 40 40 41 42 43 44 45 44 42 40 40 39 38 37 36 35 33 31 31 32 32 34 37 39 41 42 41 39 37 35 35 35 34 33 31 31 33 33 32 31 31 32 32 31 30 31 33 33 32 32 32 32 33 33 33 32 33 34 35 37 39 40 41 42
41 41 41 40 40 39 38 36 35 35 34 35 37 39 41 44 45 44 42 40 39 39 38 37 37 36 34 31 31 32 32 33 34 37 40 42 42 41 39 37 36 36 35 34 33 32 33 33 32 31 32 33 33 33 32 31 32 33 33 32 33 33 34 34 34 33 32 32 32 34 36 39 40 42
38 38 36 35 33 33 32 31 31 31 32 33 35 36 38 40 41 42 41 39 37 37 38 37 37 35 33 31 30 31 31 31 32 34 37 40 41 41 40 39 38 37 36 35 35 34 33 32 32 33 34 35 34 33 32 32 33 34 34 33 34 34 34 35 34 33 32 32 31 31 34 37 39 40
35 35 34 32 29 28 29 30 31 33 34 35 35 34 34 35 35 36 36 36 35 35 35 36 35 34 31 30 29 29 28 28 28 30 34 37 39 39 38 39 39 37 36 35 36 36 35 34 33 34 35 35 34 31 31 33 33 33 33 33 33 34 34 35 35 34 33 33 32 30 32 34 36 38
35 35 34 33 30 29 30 31 33 34 33 32 31 29 28 28 28 29 30 31 30 31 32 32 31 29 27 26 26 26 26 25 24 26 30 34 36 36 37 37 37 36 35 34 35 36 36 35 34 33 34 35 33 31 31 33 32 31 31 31 32 33 33 34 35 35 34 34 32 31 32 33 34 36
36 35 35 33 31 30 30 31 30 29 27 25 23 21 20 21 22 23 23 24 24 25 26 25 24 23 23 23 24 25 25 24 23 24 27 30 33 34 34 35 35 34 33 33 33 34 34 33 32 33 34 34 32 31 32 32 31 30 31 32 33 32 32 33 35 36 35 34 33 33 34 34 33 35
37 36 35 33 30 28 28 27 24 22 20 19 17 16 15 16 17 17 17 17 18 19 20 20 21 21 23 24 25 25 26 27 25 24 24 27 30 32 32 33 33 33 32 32 31 32 33 33 33 33 33 32 31 31 31 31 31 31 32 33 33 33 32 32 34 35 35 34 33 34 35 36 35 34
38 35 32 29 26 25 24 21 18 17 16 15 14 14 13 13 13 14 14 14 16 17 17 19 21 23 24 26 26 26 27 29 28 26 25 25 27 28 29 31 32 32 32 32 31 31 33 34 34 33 31 30 31 31 29 29 31 33 33 33 32 31 31 32 33 34 34 34 34 35 36 36 35 34
37 31 27 23 22 22 20 16 14 15 15 15 14 14 13 13 13 13 13 13 16 18 19 20 22 24 26 26 27 27 28 29 30 30 29 28 27 27 28 29 30 30 30 30 30 31 32 32 32 32 31 31 31 30 27 29 32 33 32 32 31 30 30 31 32 33 33 34 35 36 36 36 35 34
32 26 21 18 18 19 17 13 12 15 16 16 15 13 13 14 14 14 14 15 17 20 22 23 24 25 26 27 27 27 28 28 29 30 30 30 29 29 29 29 28 29 29 29 29 30 31 31 31 31 31 31 30 28 28 31 33 33 31 30 30 29 30 31 31 32 32 33 34 35 36 35 34 34
27 22 17 15 15 16 16 13 13 15 16 16 14 13 13 15 15 15 17 18 19 21 23 24 25 26 27 27 28 28 28 28 29 29 30 31 32 32 31 30 29 28 29 29 28 29 30 31 30 30 31 31 30 29 30 32 33 31 30 29 29 28 28 30 31 31 32 33 32 33 34 35 34 35
24 19 15 14 14 15 15 14 13 14 14 14 13 14 14 15 15 16 18 19 20 22 23 24 25 25 26 26 26 27 27 27 28 29 30 32 33 33 32 31 29 29 30 30 29 29 30 30 30 30 30 30 30 30 31 32 31 30 30 29 29 28 28 29 30 31 31 32 31 31 32 33 33 34
20 16 14 14 13 13 13 12 12 12 12 13 14 15 15 15 16 17 19 20 21 22 23 24 24 24 24 25 25 26 26 26 26 27 28 31 32 32 31 31 31 30 30 30 31 31 30 30 30 29 27 27 28 29 30 31 30 31 31 29 27 27 27 27 28 29 30 31 31 30 31 31 31 32
18 14 12 13 12 12 11 11 11 12 12 14 15 16 15 15 15 17 18 19 20 21 22 22 23 23 23 24 24 24 24 24 24 25 27 28 30 30 30 31 31 30 30 30 31 32 30 29 29 26 23 24 26 27 29 30 29 29 30 28 26 26 26 26 27 27 28 30 30 30 30 31 31 31
16 13 11 11 11 10 10 10 11 12 13 13 14 15 15 14 15 16 17 18 19 20 21 22 21 21 22 22 22 23 23 23 23 24 25 27 28 28 29 29 29 29 30 30 31 31 29 26 26 25 23 23 24 26 27 27 26 27 28 27 26 25 25 24 25 26 27 28 28 28 29 29 29 28
15 13 11 10 10 10 10 10 11 11 11 12 12 13 14 14 14 15 16 17 18 19 21 22 21 20 20 21 22 22 21 21 22 23 23 24 25 26 27 27 27 28 28 28 28 29 28 26 24 23 23 23 24 25 25 24 23 24 24 24 24 23 23 23 24 25 25 26 26 25 25 25 24 23
13 13 11 9 9 10 10 10 10 9 9 11 12 12 13 13 14 15 16 16 17 17 18 19 19 18 19 19 21 22 21 21 21 21 22 23 24 25 25 26 26 26 26 27 27 29 29 26 23 22 23 24 24 24 24 24 23 22 22 21 21 22 22 22 24 24 23 23 21 20 20 19 20 21
Wind_Direction
267 266 263 260 256 253 250 249 252 256 256 257 261 265 267 271 275 276 275 275 276 275 272 268 265 264 263 261 259 257 256 254 254 256 256 254 250 249 250 250 249 250 252 253 254 255 254 254 253 253 253 253 254 255 255 255 256 256 257 258 258 257 256 255 254 254 253 252 251 251 251 252 253 252
268 267 265 263 260 254 250 248 248 252 255 256 259 262 263 267 273 276 275 273 272 273 272 270 268 268 267 264 262 260 260 257 253 253 254 255 255 252 252 252 251 251 252 252 253 253 253 253 253 253 254 255 256 258 258 258 256 255 255 256 257 257 256 255 255 255 255 253 250 249 249 249 248 246
267 267 266 265 263 259 255 253 251 251 252 253 256 259 262 265 267 269 270 270 268 267 269 269 267 267 268 266 264 262 263 260 255 253 253 254 254 253 251 253 254 254 253 253 253 252 251 251 252 254 255 256 258 259 260 260 259 257 255 255 256 257 258 257 256 256 256 254 250 248 246 244 245 246
269 267 265 263 262 261 258 255 254 252 252 251 251 253 256 260 264 266 267 267 265 261 265 269 268 267 265 264 264 262 260 260 258 255 254 253 252 251 250 251 252 254 255 256 256 256 254 251 251 253 255 256 257 258 259 260 261 260 258 257 256 257 258 259 258 256 255 252 248 246 245 244 246 248
271 269 267 264 262 262 261 259 256 254 253 253 253 254 254 256 259 262 266 268 265 259 261 268 270 269 266 264 264 265 262 261 259 258 257 256 256 254 252 250 249 250 254 257 259 259 257 254 251 251 253 255 256 257 257 258 260 261 260 260 258 258 259 260 260 258 255 252 249 247 247 247 249 251
271 270 270 268 266 264 262 260 258 255 254 253 255 257 260 259 258 260 263 265 265 263 261 263 266 267 268 266 265 267 267 264 261 260 260 259 259 258 255 253 251 250 251 254 257 258 259 258 255 251 251 253 254 255 256 255 256 258 259 260 260 260 259 260 260 259 256 254 252 251 251 252 253 255
271 270 270 269 269 267 264 262 262 261 259 256 256 257 258 256 256 259 262 263 264 265 261 258 260 262 265 266 264 263 265 265 263 262 262 260 259 258 257 256 255 252 250 251 253 255 258 260 258 254 251 252 253 254 255 256 255 255 256 257 259 260 260 259 259 258 256 255 254 255 256 257 258 259
275 273 272 270 268 267 266 266 266 266 265 262 259 257 254 251 249 251 259 265 266 264 259 256 258 260 261 263 264 262 261 263 263 263 263 262 261 260 259 258 258 256 254 252 251 252 256 259 259 257 255 255 255 254 255 256 256 254 254 254 256 258 260 260 259 258 256 255 255 256 258 259 260 261
278 276 275 273 270 267 266 267 265 264 263 262 259 256 254 254 250 246 249 256 260 261 260 256 256 259 259 260 261 261 260 262 263 264 264 265 265 264 263 261 260 259 257 255 254 253 253 255 259 260 259 257 257 256 254 253 254 254 253 253 253 255 257 259 259 259 257 256 256 257 259 260 261 262
281 278 276 275 273 270 268 267 266 264 262 261 260 258 258 257 254 249 247 247 251 256 259 256 253 254 257 258 260 260 261 261 260 261 263 265 266 266 265 265 264 262 259 257 256 255 253 253 255 258 258 256 256 257 255 252 252 252 252 252 251 251 253 255 256 257 257 257 256 257 258 259 260 261
285 282 279 277 275 274 271 269 267 265 263 262 260 260 259 257 256 255 254 252 253 257 260 259 256 253 255 258 261 261 261 261 260 262 263 264 265 265 266 266 264 262 262 260 258 257 255 253 251 252 254 254 254 255 255 254 252 251 252 253 252 251 250 251 253 254 255 255 254 254 255 255 256 258
287 285 282 280 277 275 272 269 266 264 262 261 260 259 257 256 255 255 255 254 255 256 258 260 259 255 253 257 260 261 262 261 261 263 264 264 264 263 263 264 264 263 264 264 263 260 257 254 250 249 251 253 253 253 254 254 253 252 252 253 254 253 252 251 251 251 252 253 253 252 252 252 253 254
287 285 282 280 278 275 272 268 264 261 259 258 258 257 254 253 253 253 253 253 253 253 254 257 257 255 252 252 255 257 259 260 260 261 264 265 265 262 261 263 266 265 262 262 262 261 259 256 253 250 250 252 253 253 252 252 252 252 252 253 255 256 255 254 252 250 250 251 252 253 253 252 251 251
287 285 282 279 277 275 273 270 267 264 262 261 260 258 256 253 252 251 251 251 251 252 252 253 254 254 252 251 252 253 254 256 257 258 261 263 263 263 262 262 264 264 261 259 261 261 260 258 256 254 252 252 253 254 254 253 251 250 250 251 252 254 256 256 255 253 251 251 252 254 255 253 252 252
286 284 281 279 277 275 273 273 271 268 266 265 264 263 260 257 254 253 252 251 250 251 252 252 252 253 253 251 251 252 253 254 256 257 257 259 260 261 261 260 261 262 262 260 260 261 260 260 260 259 256 254 252 253 254 253 251 249 248 248 248 249 251 254 255 255 254 252 252 254 255 255 255 255
288 285 283 280 279 277 275 273 272 271 269 267 265 264 262 259 255 254 253 253 252 252 253 253 252 253 254 253 252 251 253 253 254 255 256 256 258 259 258 257 257 258 259 259 259 260 260 260 260 260 259 257 254 253 252 252 251 249 246 245 245 246 247 250 252 254 255 255 253 252 253 255 256 258
290 288 286 284 282 280 278 275 273 272 270 269 266 264 262 260 258 257 255 255 254 254 254 254 254 254 255 255 254 252 253 253 252 253 254 256 257 257 258 257 256 255 256 257 258 258 257 258 259 260 260 258 256 254 252 252 252 251 247 244 244 246 246 248 250 252 254 255 255 253 252 253 255 257
291 288 286 285 283 281 279 276 274 271 269 267 265 264 264 264 263 261 258 256 255 254 254 255 255 255 254 255 255 254 253 252 252 252 253 255 256 258 258 258 256 255 256 258 258 256 256 258 260 260 260 258 257 257 255 253 253 251 246 242 244 246 247 247 249 251 252 253 254 254 253 253 255 256
290 287 285 284 283 281 279 277 274 272 270 268 266 265 265 265 264 262 260 258 256 254 254 255 255 254 252 253 254 254 252 252 252 252 252 253 254 257 259 259 256 255 257 258 258 257 257 259 260 259 259 259 258 259 259 256 254 252 247 243 243 245 246 246 248 250 251 251 252 253 254 254 255 255
287 286 284 283 282 281 280 278 276 273 272 271 270 269 268 266 265 263 261 259 258 256 255 255 255 254 253 252 253 253 252 252 253 253 251 251 252 255 258 259 258 256 256 258 261 260 258 258 260 261 260 259 259 258 258 258 258 255 251 247 246 246 246 246 247 249 250 250 250 251 252 253 254 254
285 284 282 281 280 280 280 278 275 274 274 275 275 274 272 269 268 266 264 262 260 258 256 255 254 254 254 254 254 254 253 254 255 255 253 251 252 254 256 257 257 256 255 256 260 263 260 258 260 262 262 262 260 259 258 259 260 258 255 251 249 248 247 246 247 247 248 248 249 249 250 252 253 253
286 284 282 281 279 279 278 276 273 274 275 277 277 277 275 273 272 272 270 267 264 261 259 257 255 255 255 254 254 254 254 254 255 256 255 254 254 255 256 255 255 256 256 255 258 262 263 261 259 260 262 263 262 261 260 259 258 257 256 254 251 249 247 246 246 245 245 246 247 248 249 250 251 251
292 290 288 285 279 275 273 273 273 274 275 276 277 278 277 275 275 276 274 272 270 267 264 261 259 257 256 256 255 254 254 253 255 256 257 256 256 257 257 257 257 258 259 258 258 260 262 261 261 262 263 263 262 262 261 259 257 255 255 254 253 251 249 247 246 244 243 244 245 246 247 248 249 249
295 294 292 288 282 277 274 273 273 273 274 274 275 275 275 276 277 277 275 274 273 271 269 266 264 260 258 257 257 256 254 253 254 257 257 256 256 257 259 259 259 262 262 259 256 258 259 261 263 266 265 263 262 261 259 258 256 255 255 254 253 253 252 250 247 244 243 243 244 244 244 245 246 247
295 294 292 288 285 282 279 276 276 275 274 273 273 274 274 275 275 275 275 274 273 271 270 268 266 264 261 259 258 257 255 254 254 256 257 256 256 258 259 259 259 262 263 260 257 256 257 258 261 264 265 263 262 261 259 256 253 252 252 253 253 254 253 252 248 245 243 243 243 243 243 243 245 246
296 294 292 289 286 284 282 281 279 277 276 275 275 276 277 277 276 275 275 274 273 273 272 270 268 266 264 261 259 257 256 256 255 256 256 255 256 258 260 259 258 260 261 261 257 255 255 257 259 261 262 262 261 258 256 254 251 250 250 251 254 255 254 252 249 246 244 243 243 243 243 243 243 244
296 295 294 292 289 287 285 284 281 280 279 278 278 278 277 276 275 274 273 273 273 273 274 273 272 270 268 267 264 260 257 255 254 254 255 254 254 257 260 259 258 258 259 258 256 253 253 255 257 259 261 261 258 254 253 252 252 252 252 252 254 255 254 252 250 249 247 245 243 243 243 243 242 242
295 295 295 294 292 290 288 285 282 280 278 277 277 277 277 276 275 273 272 272 273 273 273 275 275 275 272 269 268 266 262 257 252 251 252 252 252 254 258 258 256 255 256 255 253 252 251 252 254 256 258 258 256 253 251 251 252 253 254 255 254 253 254 254 252 251 249 246 244 243 243 243 243 243
297 297 296 295 293 291 289 286 283 280 277 276 276 276 276 275 275 274 273 273 272 272 273 274 276 276 275 271 268 267 265 259 253 248 247 249 249 250 253 254 253 252 253 254 253 252 252 252 253 254 255 255 254 253 251 250 251 253 255 256 255 255 255 255 254 253 251 248 246 244 244 244 244 244
301 299 298 295 292 290 290 288 285 282 279 277 276 275 274 274 274 274 274 273 271 271 272 273 274 274 273 269 265 264 264 262 256 250 246 246 248 249 250 251 250 249 250 252 253 252 252 253 253 253 253 254 254 254 253 252 253 254 255 256 257 256 254 254 254 255 254 251 249 247 246 244 244 245
306 305 304 301 297 293 292 290 287 286 284 283 280 278 275 273 272 272 272 272 270 269 270 271 272 273 271 267 263 263 265 264 260 254 248 245 245 247 249 250 251 250 250 251 252 251 251 252 251 251 253 254 254 255 255 254 254 255 255 255 256 255 254 253 254 255 255 254 251 248 246 245 245 246
310 312 312 310 305 299 294 292 290 290 289 288 285 282 278 275 272 270 269 269 268 268 268 269 270 270 267 263 261 262 264 265 263 256 250 246 245 245 247 249 252 253 253 251 249 248 249 251 251 251 252 254 255 254 255 254 253 255 257 256 256 255 254 254 255 255 256 255 254 252 250 248 246 247
308 312 314 311 305 299 295 294 293 292 290 288 286 284 280 277 274 271 270 269 268 267 267 267 268 266 262 259 259 260 262 266 268 262 252 246 244 244 245 247 250 252 253 251 249 247 248 249 251 252 251 251 252 253 253 253 253 254 256 257 256 255 255 256 257 256 255 255 255 256 256 253 249 249
303 306 309 308 303 298 297 297 295 293 292 291 289 288 286 284 280 277 275 273 270 268 267 265 263 262 260 259 259 260 260 263 267 266 257 248 244 244 244 245 248 250 252 250 247 246 247 247 248 250 250 250 250 252 253 254 254 254 255 255 254 254 255 255 256 255 255 255 256 257 259 258 255 252
306 303 303 305 301 298 299 301 299 296 295 295 296 296 296 295 290 284 278 274 271 269 268 265 261 259 260 261 261 261 260 259 258 259 256 249 245 244 244 244 246 247 249 250 246 244 246 246 245 246 249 250 250 250 252 256 258 256 254 253 254 256 256 255 255 255 254 255 255 256 257 259 257 254
312 304 300 300 299 297 299 304 305 304 301 301 303 304 304 302 298 290 284 279 276 273 269 265 263 261 260 260 261 262 262 259 255 251 248 246 244 244 244 245 247 247 248 249 247 243 244 246 246 248 250 251 250 249 250 254 257 256 253 252 252 255 256 255 254 253 254 254 255 256 257 258 259 258
315 308 300 297 297 298 302 306 311 313 310 306 305 306 304 303 299 292 287 283 281 278 274 270 268 266 264 263 264 264 263 260 256 250 245 242 241 241 241 242 244 245 245 245 244 242 243 244 246 248 250 251 251 251 250 250 252 254 253 252 252 253 255 255 254 254 255 255 256 257 258 259 261 261
318 311 302 299 300 304 307 305 304 308 308 306 306 305 302 299 296 291 288 285 283 281 279 277 275 273 272 271 269 268 266 263 258 253 248 244 242 241 240 240 241 242 242 240 240 242 244 244 244 246 249 251 254 253 250 249 250 252 253 254 255 254 254 255 255 255 255 256 256 257 258 259 260 261
320 314 305 303 307 310 310 303 295 296 300 303 306 305 300 297 296 293 291 289 287 284 281 280 280 278 276 274 271 268 266 262 258 254 249 245 242 241 242 242 241 242 243 241 239 241 244 245 245 246 248 250 252 252 251 251 252 253 253 253 254 255 256 257 257 255 256 256 256 257 259 260 261 262
322 317 309 308 310 311 310 306 301 299 301 305 308 306 303 301 300 297 293 291 290 288 286 285 283 281 277 273 269 267 264 260 256 254 251 246 243 242 243 244 243 244 246 245 241 239 241 242 243 244 245 246 247 248 250 252 253 253 253 251 251 254 257 259 260 259 259 259 258 258 259 260 260 263
323 318 312 310 311 311 311 310 308 307 307 308 310 311 310 308 304 301 298 296 295 294 293 291 287 282 278 274 269 267 265 261 257 255 251 247 245 243 243 244 244 245 247 246 243 240 239 240 242 242 242 245 248 248 248 250 251 251 251 249 249 251 255 258 260 260 260 259 258 257 259 260 260 261
325 319 313 310 310 312 314 313 312 314 316 318 319 320 321 320 315 310 308 306 304 302 301 297 291 285 280 275 270 267 265 262 258 254 251 249 246 242 240 241 243 246 248 248 246 245 243 244 250 249 241 239 243 244 245 248 250 251 251 250 250 252 255 258 260 261 261 261 259 257 258 260 261 262
329 325 318 313 311 313 315 318 322 324 325 326 327 327 327 327 326 322 318 315 311 307 305 301 296 289 282 276 271 267 263 259 255 252 250 249 247 244 241 240 242 247 249 247 247 250 251 252 259 260 247 238 239 243 245 248 250 251 251 251 251 254 257 258 261 264 265 264 263 261 259 258 259 262
338 335 327 319 318 320 323 326 328 330 332 336 341 342 340 338 336 332 329 323 317 312 308 304 299 294 288 280 273 269 264 260 257 253 249 246 244 242 243 242 240 242 244 242 244 249 252 254 258 256 246 240 242 245 246 247 248 249 250 251 252 254 257 259 261 264 265 266 265 262 260 258 257 258
345 346 344 340 335 333 333 335 338 343 353 360 358 353 349 344 337 334 334 331 326 321 316 309 303 300 295 287 276 268 264 263 262 258 251 244 240 238 240 240 238 236 238 239 239 243 246 249 250 246 241 240 242 244 245 244 244 247 250 250 252 255 257 259 261 262 262 264 262 259 259 259 256 253
Height
3155 3156 3156 3157 3158 3158 3159 3159 3159 3159 3159 3160 3160 3160 3160 3160 3160 3160 3160 3161 3162 3162 3162 3163 3163 3163 3163 3164 3165 3165 3165 3167 3167 3167 3167 3168 3169 3170 3171 3172 3172 3173 3173 3174 3175 3175 3175 3176 3176 3177 3177 3177 3177 3178 3178 3178 3178 3178 3179 3179 3180 3180 3180 3180 3180 3181 3181 3182 3182 3183 3183 3183 3183 3184
3152 3153 3153 3153 3154 3155 3155 3156 3156 3156 3157 3157 3157 3157 3157 3157 3156 3157 3157 3157 3159 3160 3159 3159 3160 3160 3160 3161 3161 3161 3162 3163 3164 3164 3164 3165 3166 3167 3168 3169 3169 3170 3170 3171 3172 3173 3173 3173 3174 3174 3175 3175 3175 3176 3176 3176 3176 3176 3177 3177 3177 3178 3178 3178 3178 3179 3179 3180 3180 3180 3181 3181 3181 3181
3149 3149 3150 3150 3151 3151 3152 3152 3153 3153 3154 3154 3155 3154 3154 3154 3154 3154 3153 3154 3156 3157 3156 3156 3157 3157 3157 3157 3158 3158 3159 3160 3160 3161 3161 3162 3163 3164 3165 3166 3166 3167 3168 3168 3169 3170 3170 3171 3171 3172 3172 3173 3173 3173 3174 3174 3174 3174 3174 3175 3175 3175 3175 3176 3176 3177 3177 3178 3178 3178 3178 3179 3179 3179
3146 3146 3147 3147 3147 3147 3148 3149 3149 3150 3150 3151 3151 3152 3152 3152 3151 3151 3151 3151 3153 3154 3153 3153 3154 3154 3154 3155 3155 3155 3156 3156 3157 3157 3158 3159 3160 3160 3161 3163 3163 3164 3165 3165 3166 3167 3167 3168 3168 3169 3169 3170 3170 3171 3171 3171 3172 3172 3172 3173 3173 3173 3173 3174 3174 3175 3175 3176 3176 3176 3176 3177 3177 3177
3143 3143 3143 3144 3144 3144 3145 3146 3146 3147 3147 3147 3148 3148 3149 3149 3149 3149 3148 3148 3149 3151 3151 3150 3151 3151 3151 3151 3152 3152 3153 3153 3154 3154 3155 3155 3156 3157 3158 3159 3160 3161 3162 3162 3163 3164 3164 3165 3165 3166 3166 3167 3168 3168 3169 3169 3169 3170 3170 3170 3171 3171 3171 3172 3172 3172 3173 3173 3174 3174 3175 3175 3175 3176
3140 3140 3140 3140 3141 3141 3142 3142 3143 3143 3144 3144 3145 3145 3145 3146 3146 3146 3145 3145 3145 3147 3148 3148 3148 3148 3148 3147 3148 3148 3149 3150 3150 3150 3151 3152 3152 3153 3154 3155 3156 3157 3159 3159 3160 3160 3161 3162 3163 3163 3163 3164 3165 3165 3166 3166 3167 3167 3167 3168 3168 3169 3169 3170 3170 3170 3171 3171 3172 3172 3173 3173 3173 3173
3137 3137 3137 3137 3138 3138 3138 3138 3139 3139 3140 3140 3141 3142 3142 3143 3143 3143 3142 3142 3142 3143 3144 3144 3144 3145 3145 3144 3145 3145 3146 3146 3146 3147 3147 3148 3148 3149 3150 3151 3152 3154 3155 3156 3157 3157 3158 3159 3160 3160 3161 3161 3162 3163 3163 3164 3164 3164 3164 3165 3165 3166 3167 3167 3168 3168 3169 3169 3170 3170 3170 3171 3171 3171
3134 3133 3133 3134 3134 3134 3134 3135 3135 3136 3136 3137 3137 3138 3138 3139 3139 3140 3140 3140 3139 3139 3140 3140 3141 3141 3141 3141 3141 3142 3143 3143 3143 3143 3144 3145 3145 3145 3146 3147 3148 3150 3151 3152 3154 3154 3155 3156 3157 3158 3158 3159 3159 3160 3160 3161 3161 3161 3162 3162 3163 3163 3164 3164 3165 3166 3166 3167 3167 3168 3168 3168 3168 3169
3130 3130 3130 3130 3131 3131 3131 3131 3132 3132 3133 3133 3134 3134 3134 3134 3135 3136 3136 3136 3135 3135 3136 3137 3138 3138 3138 3138 3138 3139 3139 3139 3140 3140 3140 3141 3141 3142 3142 3143 3144 3146 3147 3149 3150 3151 3152 3152 3153 3154 3155 3156 3156 3157 3157 3158 3158 3159 3159 3159 3160 3160 3161 3162 3162 3163 3163 3164 3164 3165 3165 3165 3166 3166
3127 3127 3127 3127 3127 3127 3127 3128 3128 3129 3129 3129 3129 3130 3130 3130 3130 3131 3132 3132 3131 3131 3131 3133 3134 3134 3134 3134 3134 3135 3136 3136 3136 3137 3137 3138 3138 3139 3139 3139 3141 3142 3143 3144 3145 3147 3148 3149 3149 3150 3151 3152 3153 3154 3154 3155 3155 3156 3156 3157 3157 3157 3158 3159 3159 3160 3160 3161 3161 3162 3162 3162 3163 3163
3124 3124 3124 3123 3124 3124 3124 3124 3125 3125 3125 3125 3125 3126 3126 3126 3127 3127 3128 3128 3128 3128 3128 3128 3130 3131 3131 3131 3131 3132 3132 3132 3133 3133 3134 3134 3135 3135 3135 3136 3137 3138 3138 3139 3140 3142 3143 3144 3145 3145 3146 3147 3149 3150 3151 3152 3152 3153 3153 3154 3154 3155 3155 3156 3156 3157 3157 3158 3158 3159 3159 3159 3160 3160
3121 3120 3120 3120 3120 3120 3120 3121 3121 3121 3122 3121 3121 3122 3122 3122 3122 3123 3123 3124 3124 3124 3124 3124 3125 3127 3127 3127 3128 3128 3128 3129 3130 3131 3130 3130 3131 3131 3131 3132 3132 3133 3134 3135 3136 3137 3138 3139 3140 3141 3142 3143 3144 3146 3147 3148 3149 3150 3150 3151 3151 3152 3153 3153 3154 3154 3155 3155 3155 3156 3156 3156 3157 3157
3117 3117 3117 3116 3116 3116 3116 3117 3117 3117 3117 3117 3117 3118 3118 3118 3118 3118 3118 3119 3119 3120 3120 3120 3121 3122 3123 3124 3124 3125 3125 3125 3126 3127 3126 3126 3127 3128 3128 3128 3129 3130 3131 3131 3132 3133 3134 3134 3135 3136 3137 3139 3140 3141 3143 3144 3145 3146 3147 3148 3149 3149 3150 3150 3151 3151 3152 3152 3152 3153 3153 3153 3154 3154
3114 3113 3113 3112 3112 3112 3112 3112 3112 3113 3113 3113 3113 3113 3114 3114 3114 3113 3114 3114 3115 3115 3115 3116 3117 3117 3118 3120 3121 3121 3121 3121 3122 3123 3123 3122 3123 3123 3124 3125 3126 3126 3126 3127 3127 3128 3129 3129 3130 3132 3133 3135 3136 3137 3139 3140 3141 3143 3144 3145 3145 3146 3146 3147 3148 3148 3149 3149 3149 3150 3150 3151 3151 3151
3110 3110 3109 3108 3108 3108 3108 3108 3108 3108 3108 3108 3108 3108 3109 3109 3109 3109 3109 3110 3111 3111 3111 3111 3112 3112 3113 3115 3116 3117 3118 3118 3118 3118 3118 3118 3118 3119 3120 3121 3123 3123 3122 3123 3123 3124 3125 3125 3126 3127 3129 3131 3132 3133 3134 3135 3137 3138 3140 3141 3141 3142 3143 3143 3144 3145 3146 3146 3146 3147 3147 3148 3148 3148
3106 3105 3105 3104 3104 3104 3104 3104 3103 3103 3103 3103 3103 3103 3103 3103 3104 3104 3104 3104 3105 3106 3106 3106 3107 3107 3108 3110 3112 3113 3114 3114 3114 3113 3113 3114 3114 3115 3116 3117 3118 3119 3119 3119 3119 3120 3121 3121 3121 3122 3124 3126 3127 3128 3130 3131 3132 3133 3135 3136 3137 3138 3138 3139 3140 3141 3142 3143 3143 3144 3144 3145 3145 3145
3102 3101 3100 3100 3100 3100 3099 3099 3099 3099 3098 3098 3098 3097 3097 3098 3099 3099 3099 3100 3100 3101 3100 3100 3101 3103 3104 3105 3106 3108 3109 3109 3109 3108 3108 3109 3110 3111 3112 3113 3114 3115 3115 3115 3115 3116 3117 3117 3117 3118 3120 3122 3122 3124 3125 3126 3127 3129 3130 3132 3133 3134 3135 3135 3136 3137 3138 3139 3140 3140 3141 3141 3141 3142
3098 3097 3096 3095 3095 3095 3095 3094 3094 3094 3093 3092 3092 3092 3092 3092 3094 3094 3095 3095 3095 3096 3096 3096 3096 3098 3099 3099 3101 3102 3103 3103 3103 3103 3104 3105 3105 3106 3107 3108 3109 3110 3111 3111 3111 3111 3113 3114 3113 3113 3116 3117 3118 3119 3120 3122 3122 3124 3125 3127 3128 3129 3131 3131 3132 3133 3134 3135 3136 3137 3137 3138 3138 3139
3094 3093 3092 3091 3091 3090 3090 3090 3090 3088 3087 3086 3086 3087 3087 3088 3088 3089 3090 3090 3090 3091 3091 3091 3091 3092 3093 3094 3095 3096 3097 3097 3097 3098 3099 3100 3101 3101 3102 3103 3105 3106 3107 3107 3106 3106 3109 3111 3109 3109 3112 3113 3113 3114 3116 3117 3118 3119 3120 3122 3123 3124 3126 3127 3128 3129 3130 3131 3132 3133 3133 3134 3135 3135
3090 3089 3088 3087 3086 3085 3085 3085 3084 3083 3082 3081 3082 3082 3083 3083 3083 3083 3084 3085 3085 3086 3086 3086 3086 3087 3088 3088 3089 3090 3092 3092 3093 3093 3093 3095 3096 3096 3096 3098 3099 3101 3102 3103 3102 3101 3104 3106 3105 3106 3108 3108 3108 3110 3112 3113 3114 3115 3116 3117 3118 3119 3121 3122 3124 3125 3126 3126 3127 3129 3129 3130 3131 3132
3085 3084 3084 3083 3081 3081 3080 3080 3079 3078 3077 3077 3077 3077 3078 3077 3077 3078 3079 3080 3080 3080 3080 3080 3080 3081 3082 3083 3084 3085 3086 3087 3088 3088 3088 3090 3091 3091 3091 3092 3094 3095 3097 3099 3098 3097 3099 3102 3102 3102 3102 3103 3103 3105 3107 3109 3110 3111 3111 3112 3113 3114 3116 3117 3118 3120 3121 3122 3123 3124 3125 3126 3127 3127
3080 3079 3079 3078 3077 3076 3075 3075 3074 3073 3073 3073 3073 3073 3073 3072 3073 3073 3074 3074 3074 3074 3074 3074 3074 3075 3076 3077 3079 3080 3081 3083 3083 3083 3083 3085 3087 3086 3086 3087 3089 3090 3092 3094 3095 3093 3094 3097 3098 3098 3098 3097 3098 3100 3103 3104 3105 3106 3107 3108 3109 3110 3111 3111 3113 3114 3116 3117 3118 3120 3121 3122 3122 3123
3075 3075 3074 3074 3072 3071 3070 3070 3070 3070 3069 3069 3068 3068 3068 3067 3068 3068 3068 3068 3068 3068 3068 3068 3069 3070 3071 3072 3073 3074 3076 3077 3078 3077 3078 3081 3081 3081 3081 3083 3084 3084 3086 3090 3092 3090 3090 3092 3093 3093 3093 3092 3093 3096 3098 3099 3100 3101 3102 3103 3104 3105 3106 3106 3108 3109 3111 3112 3113 3115 3116 3117 3118 3119
3071 3071 3070 3069 3068 3067 3066 3066 3066 3066 3065 3064 3064 3063 3063 3062 3063 3063 3062 3062 3062 3062 3062 3062 3063 3064 3065 3066 3067 3068 3070 3071 3072 3073 3074 3075 3076 3076 3076 3078 3079 3078 3081 3086 3088 3086 3086 3087 3087 3088 3088 3088 3088 3091 3093 3094 3096 3097 3097 3098 3099 3100 3101 3102 3103 3105 3106 3107 3108 3110 3111 3112 3113 3115
3067 3066 3066 3066 3064 3062 3062 3062 3061 3061 3061 3060 3059 3058 3058 3058 3058 3057 3056 3056 3057 3056 3056 3057 3057 3058 3059 3060 3061 3062 3064 3065 3067 3068 3068 3070 3071 3071 3071 3073 3074 3074 3076 3080 3082 3081 3081 3082 3082 3082 3083 3083 3084 3086 3088 3089 3091 3092 3093 3093 3094 3096 3097 3097 3098 3100 3101 3102 3104 3105 3106 3107 3109 3110
3063 3062 3061 3061 3060 3058 3057 3057 3056 3056 3055 3055 3054 3054 3053 3053 3053 3052 3050 3050 3050 3050 3051 3051 3051 3052 3053 3053 3055 3056 3057 3059 3061 3062 3063 3064 3065 3066 3067 3068 3069 3069 3071 3075 3077 3076 3075 3076 3077 3077 3078 3079 3080 3082 3082 3083 3085 3087 3088 3089 3090 3091 3092 3093 3094 3094 3096 3097 3099 3100 3102 3103 3104 3105
3058 3057 3056 3056 3055 3053 3052 3051 3050 3049 3049 3048 3048 3048 3048 3047 3046 3045 3044 3044 3044 3045 3045 3045 3045 3047 3048 3048 3049 3050 3051 3053 3055 3056 3057 3058 3060 3060 3061 3063 3064 3065 3067 3069 3071 3071 3070 3071 3072 3073 3074 3075 3076 3077 3077 3079 3080 3082 3083 3084 3085 3086 3087 3088 3089 3090 3091 3093 3094 3095 3096 3097 3099 3100
3054 3052 3051 3050 3049 3048 3046 3045 3044 3043 3042 3042 3041 3041 3041 3040 3039 3038 3038 3039 3039 3039 3039 3039 3040 3041 3043 3043 3043 3044 3045 3047 3049 3050 3051 3052 3054 3055 3056 3058 3059 3060 3062 3064 3065 3066 3066 3066 3068 3069 3070 3071 3071 3072 3073 3074 3075 3077 3078 3079 3081 3082 3083 3084 3085 3085 3086 3087 3088 3089 3091 3092 3094 3095
3049 3047 3045 3044 3043 3041 3040 3038 3037 3036 3035 3035 3035 3034 3033 3032 3032 3031 3032 3032 3032 3032 3033 3034 3034 3036 3037 3038 3038 3039 3039 3040 3041 3043 3044 3045 3047 3049 3051 3053 3054 3055 3057 3059 3060 3061 3061 3061 3063 3065 3065 3066 3067 3068 3069 3070 3070 3072 3074 3075 3076 3078 3079 3079 3080 3081 3082 3083 3084 3085 3086 3088 3089 3090
3042 3041 3039 3037 3035 3034 3033 3031 3030 3029 3029 3029 3028 3027 3026 3025 3024 3024 3025 3025 3026 3026 3027 3028 3028 3030 3031 3032 3033 3033 3033 3033 3034 3036 3037 3039 3040 3042 3045 3047 3048 3050 3052 3053 3055 3056 3056 3057 3059 3060 3061 3062 3063 3064 3065 3066 3066 3067 3069 3070 3071 3073 3074 3074 3075 3076 3077 3078 3080 3081 3081 3083 3084 3085
3037 3034 3032 3031 3029 3027 3026 3025 3024 3023 3023 3022 3021 3021 3020 3018 3018 3018 3018 3018 3019 3020 3021 3021 3022 3024 3025 3026 3027 3027 3027 3028 3028 3030 3031 3032 3034 3037 3039 3040 3042 3044 3046 3048 3049 3051 3051 3052 3054 3055 3056 3057 3059 3060 3061 3061 3061 3062 3064 3065 3066 3068 3069 3070 3071 3072 3073 3074 3075 3076 3077 3078 3079 3080
3032 3030 3027 3026 3024 3023 3021 3020 3018 3017 3016 3015 3014 3014 3013 3012 3012 3012 3012 3012 3013 3014 3015 3016 3016 3018 3019 3020 3021 3022 3022 3022 3023 3024 3025 3026 3029 3031 3034 3035 3036 3038 3040 3042 3044 3045 3047 3048 3049 3051 3052 3052 3054 3056 3056 3056 3057 3058 3059 3061 3062 3063 3065 3066 3066 3068 3069 3069 3070 3072 3072 3074 3075 3075
3028 3026 3024 3022 3020 3018 3016 3015 3013 3012 3010 3009 3008 3008 3007 3006 3006 3007 3007 3008 3009 3009 3010 3010 3011 3013 3014 3015 3016 3017 3017 3018 3019 3019 3020 3021 3023 3026 3028 3029 3031 3033 3035 3037 3038 3040 3042 3044 3045 3046 3047 3047 3049 3051 3051 3051 3052 3054 3055 3057 3057 3059 3061 3062 3062 3063 3064 3065 3066 3066 3067 3069 3071 3071
3024 3022 3020 3017 3015 3013 3012 3010 3008 3007 3005 3004 3004 3003 3003 3003 3003 3003 3003 3004 3004 3005 3006 3007 3008 3008 3009 3010 3012 3013 3013 3014 3015 3015 3016 3017 3019 3021 3023 3024 3026 3028 3030 3032 3034 3035 3037 3039 3041 3041 3041 3043 3045 3046 3047 3048 3049 3051 3052 3052 3053 3054 3055 3057 3058 3058 3059 3060 3061 3061 3062 3063 3066 3067
3020 3017 3014 3013 3011 3009 3008 3006 3004 3003 3002 3001 3001 3000 3000 3000 3000 3000 3000 3001 3001 3002 3003 3004 3004 3005 3006 3007 3007 3008 3009 3010 3011 3012 3012 3013 3014 3016 3018 3020 3022 3024 3026 3027 3029 3031 3032 3034 3035 3036 3037 3039 3041 3041 3043 3044 3046 3047 3048 3047 3048 3049 3050 3052 3053 3054 3055 3055 3056 3056 3057 3058 3060 3062
3014 3011 3009 3008 3006 3005 3004 3003 3001 3000 3000 2999 2999 2999 2999 2999 2999 2999 2999 2999 3000 3000 3000 3001 3001 3002 3002 3003 3003 3004 3005 3005 3006 3007 3008 3009 3010 3011 3014 3016 3018 3020 3022 3023 3025 3027 3028 3028 3030 3031 3033 3035 3036 3037 3040 3041 3041 3041 3042 3043 3044 3045 3046 3047 3048 3049 3050 3051 3052 3052 3053 3053 3054 3057
3008 3006 3004 3003 3003 3002 3001 3000 3000 2999 2999 2998 2998 2997 2997 2997 2997 2997 2997 2997 2998 2998 2998 2998 2998 2998 2998 2998 2999 3000 3001 3001 3002 3003 3004 3005 3006 3007 3009 3011 3013 3015 3018 3019 3022 3023 3023 3024 3025 3027 3029 3030 3031 3033 3036 3037 3036 3036 3037 3038 3040 3041 3042 3043 3043 3044 3046 3047 3048 3048 3048 3049 3050 3052
3005 3002 3001 3000 3000 2999 2999 2999 2998 2998 2997 2997 2996 2996 2996 2996 2996 2995 2995 2995 2995 2996 2995 2995 2994 2994 2994 2994 2994 2996 2997 2997 2998 2999 3000 3002 3003 3003 3005 3007 3009 3011 3013 3015 3017 3019 3019 3019 3021 3023 3024 3026 3027 3029 3031 3032 3031 3032 3033 3034 3036 3037 3038 3038 3038 3039 3041 3042 3043 3044 3044 3044 3045 3047
3002 3000 2999 2998 2998 2998 2998 2997 2997 2996 2996 2995 2995 2995 2995 2994 2994 2994 2994 2993 2993 2993 2992 2991 2991 2991 2990 2990 2990 2991 2991 2992 2993 2994 2995 2997 2998 2999 3001 3003 3005 3007 3009 3011 3012 3014 3014 3016 3017 3019 3020 3021 3022 3025 3026 3026 3026 3028 3030 3031 3032 3033 3034 3033 3034 3035 3037 3038 3039 3040 3039 3039 3041 3042
3001 2999 2998 2997 2997 2997 2996 2996 2995 2995 2995 2994 2994 2993 2993 2993 2992 2992 2991 2991 2990 2989 2989 2988 2987 2987 2986 2986 2986 2986 2986 2987 2988 2989 2990 2991 2993 2995 2997 2999 3000 3002 3004 3006 3008 3009 3010 3011 3012 3013 3014 3015 3017 3019 3021 3022 3023 3024 3026 3027 3028 3029 3030 3030 3030 3031 3032 3034 3035 3036 3035 3036 3037 3037
2999 2998 2997 2996 2996 2995 2995 2994 2994 2994 2993 2993 2993 2992 2991 2991 2990 2990 2989 2988 2987 2986 2985 2984 2983 2983 2982 2982 2982 2982 2982 2982 2983 2984 2985 2986 2988 2990 2992 2995 2996 2998 3000 3002 3004 3004 3004 3006 3006 3008 3010 3012 3014 3015 3016 3017 3019 3020 3021 3022 3024 3025 3026 3026 3026 3027 3028 3029 3031 3031 3031 3031 3032 3033
2998 2996 2996 2995 2995 2994 2994 2993 2993 2993 2992 2992 2991 2990 2990 2989 2988 2987 2986 2985 2984 2982 2981 2980 2979 2979 2978 2978 2978 2978 2978 2979 2979 2980 2981 2982 2984 2986 2987 2990 2992 2994 2996 2998 2999 3000 3001 3002 3003 3004 3005 3007 3009 3011 3011 3012 3014 3016 3017 3018 3019 3021 3021 3022 3022 3023 3023 3024 3025 3026 3027 3027 3027 3028
2996 2995 2995 2994 2994 2993 2993 2993 2992 2992 2991 2991 2990 2989 2988 2987 2986 2985 2984 2982 2981 2979 2978 2976 2976 2975 2975 2975 2975 2974 2975 2975 2975 2976 2977 2978 2980 2981 2983 2985 2988 2990 2992 2993 2995 2997 2998 2999 3001 3002 3003 3003 3005 3006 3007 3009 3011 3012 3013 3014 3016 3017 3018 3018 3018 3019 3019 3019 3020 3021 3022 3023 3024 3025
2996 2995 2994 2994 2993 2993 2993 2992 2992 2991 2990 2990 2989 2988 2987 2986 2985 2984 2982 2980 2979 2977 2975 2974 2973 2972 2971 2971 2970 2970 2970 2971 2971 2972 2973 2974 2975 2977 2979 2981 2983 2985 2987 2989 2991 2993 2995 2997 2998 2999 3000 3001 3002 3003 3004 3006 3008 3008 3009 3010 3012 3013 3014 3015 3015 3015 3016 3016 3016 3017 3019 3019 3020 3021
2995 2994 2993 2993 2993 2992 2992 2991 2991 2990 2990 2989 2988 2987 2986 2985 2984 2982 2980 2979 2977 2975 2973 2971 2970 2969 2968 2967 2966 2966 2966 2966 2967 2968 2969 2971 2972 2973 2975 2977 2979 2981 2983 2985 2987 2989 2991 2993 2995 2996 2996 2998 2999 3000 3001 3002 3004 3005 3006 3007 3008 3009 3011 3012 3012 3012 3012 3012 3013 3014 3014 3015 3016 3018